BAW252 MWCR-MYNN

Flight info

Callsign BAW252
Flight time N/A
Altitude 360
Route KANEX UM330 ULBAS UG437 DYNAH G437 WELKS
Aircraft A320/M-V/N

Departure

Time 2026-04-23 00:21
Airport Owen Roberts International Airport (MWCR)

Arrival

Time N/A
Airport Lynden Pindling International Airport (MYNN)
Time Latitude Longitude Altitude Speed Heading
2026-04-23 00:13 19.29331 -81.36168 23 ft 0 kts 346°
2026-04-23 00:15 19.29327 -81.36167 23 ft 2 kts 346°
2026-04-23 00:15 19.29311 -81.36163 23 ft 3 kts 346°
2026-04-23 00:15 19.29292 -81.36157 23 ft 3 kts 346°
2026-04-23 00:16 19.29279 -81.36154 23 ft 0 kts 346°
2026-04-23 00:18 19.29284 -81.36156 23 ft 5 kts 327°
2026-04-23 00:18 19.29277 -81.36236 23 ft 14 kts 233°
2026-04-23 00:18 19.29206 -81.36234 23 ft 10 kts 165°
2026-04-23 00:19 19.29157 -81.36292 23 ft 17 kts 254°
2026-04-23 00:19 19.29118 -81.36456 23 ft 25 kts 256°
2026-04-23 00:19 19.29078 -81.36627 23 ft 24 kts 256°
2026-04-23 00:19 19.29083 -81.36757 23 ft 8 kts 219°
2026-04-23 00:20 19.29063 -81.36705 23 ft 14 kts 81°
2026-04-23 00:20 19.29094 -81.36562 23 ft 36 kts 75°
2026-04-23 00:20 19.29226 -81.36016 23 ft 115 kts 77°
2026-04-23 00:20 19.29471 -81.34961 141 ft 170 kts 76°
2026-04-23 00:21 19.29783 -81.33672 832 ft 191 kts 75°
2026-04-23 00:21 19.30335 -81.32301 1556 ft 216 kts 56°
2026-04-23 00:21 19.31359 -81.31038 2423 ft 230 kts 43°
2026-04-23 00:21 19.32514 -81.29953 3276 ft 221 kts 35°
2026-04-23 00:22 19.33746 -81.29011 4080 ft 220 kts 27°
2026-04-23 00:22 19.34992 -81.28035 4864 ft 227 kts 36°
2026-04-23 00:22 19.36016 -81.26703 5562 ft 241 kts 52°
2026-04-23 00:22 19.36842 -81.25039 5918 ft 269 kts 61°
2026-04-23 00:23 19.37543 -81.23100 6348 ft 293 kts 65°
2026-04-23 00:23 19.38370 -81.21124 7231 ft 293 kts 58°
2026-04-23 00:23 19.39491 -81.19337 8109 ft 292 kts 47°
2026-04-23 00:23 19.40743 -81.17639 9004 ft 294 kts 47°
2026-04-23 00:24 19.41981 -81.15937 9816 ft 297 kts 47°
2026-04-23 00:24 19.43288 -81.14226 10603 ft 300 kts 45°
2026-04-23 00:24 19.44660 -81.12548 11391 ft 303 kts 45°
2026-04-23 00:24 19.46021 -81.10848 12262 ft 302 kts 45°
2026-04-23 00:25 19.47460 -81.09234 13110 ft 298 kts 38°
2026-04-23 00:25 19.49012 -81.07786 13916 ft 297 kts 36°
2026-04-23 00:25 19.50573 -81.06349 14687 ft 297 kts 36°
2026-04-23 00:25 19.52133 -81.04923 15422 ft 296 kts 36°
2026-04-23 00:26 19.53705 -81.03499 16134 ft 297 kts 36°
2026-04-23 00:26 19.55280 -81.02083 16815 ft 297 kts 35°
2026-04-23 00:26 19.56870 -81.00667 17473 ft 298 kts 35°
2026-04-23 00:26 19.58464 -80.99257 18105 ft 300 kts 35°
2026-04-23 00:27 19.60073 -80.97848 18708 ft 301 kts 34°
2026-04-23 00:27 19.61700 -80.96434 19300 ft 303 kts 34°
2026-04-23 00:27 19.63345 -80.95016 19869 ft 305 kts 34°
2026-04-23 00:27 19.65003 -80.93558 20224 ft 317 kts 37°
2026-04-23 00:28 19.66657 -80.91969 20427 ft 332 kts 38°
2026-04-23 00:28 19.68432 -80.90276 20632 ft 346 kts 35°
2026-04-23 00:28 19.70387 -80.88701 20836 ft 360 kts 32°
2026-04-23 00:28 19.72361 -80.87025 21027 ft 378 kts 42°
2026-04-23 00:29 19.73838 -80.84640 21229 ft 400 kts 64°
2026-04-23 00:29 19.74447 -80.81701 21433 ft 417 kts 85°
2026-04-23 00:29 19.74375 -80.78631 22097 ft 414 kts 90°
2026-04-23 00:29 19.74270 -80.75727 22814 ft 394 kts 90°
2026-04-23 00:30 19.74144 -80.72886 23480 ft 391 kts 91°
2026-04-23 00:30 19.73995 -80.70009 24122 ft 389 kts 91°
2026-04-23 00:30 19.73824 -80.67141 24734 ft 388 kts 92°
2026-04-23 00:30 19.73633 -80.64279 25211 ft 392 kts 92°
2026-04-23 00:31 19.73437 -80.61352 25417 ft 402 kts 92°
2026-04-23 00:31 19.73236 -80.58348 25620 ft 412 kts 92°
2026-04-23 00:31 19.73047 -80.55286 25829 ft 421 kts 90°
2026-04-23 00:31 19.73400 -80.52208 26070 ft 423 kts 71°
2026-04-23 00:32 19.74588 -80.49334 26220 ft 430 kts 61°
2026-04-23 00:32 19.75944 -80.46475 26491 ft 435 kts 60°
2026-04-23 00:32 19.77507 -80.43705 26846 ft 436 kts 51°
2026-04-23 00:32 19.79450 -80.41236 27143 ft 436 kts 43°
2026-04-23 00:33 19.81704 -80.39139 27388 ft 436 kts 33°
2026-04-23 00:33 19.84258 -80.37400 27595 ft 437 kts 26°
2026-04-23 00:33 19.86979 -80.35849 27874 ft 439 kts 25°
2026-04-23 00:33 19.89641 -80.34341 28196 ft 439 kts 25°
2026-04-23 00:34 19.92339 -80.32806 28523 ft 440 kts 25°
2026-04-23 00:34 19.95045 -80.31267 28848 ft 441 kts 25°
2026-04-23 00:34 19.97761 -80.29721 29174 ft 443 kts 25°
2026-04-23 00:34 20.00480 -80.28177 29499 ft 445 kts 25°
2026-04-23 00:35 20.03213 -80.26625 29825 ft 446 kts 25°
2026-04-23 00:35 20.05951 -80.25071 30151 ft 447 kts 25°
2026-04-23 00:35 20.08712 -80.23504 30478 ft 448 kts 25°
2026-04-23 00:35 20.11466 -80.21943 30804 ft 448 kts 25°
2026-04-23 00:36 20.14221 -80.20382 31129 ft 449 kts 25°
2026-04-23 00:36 20.16975 -80.18821 31454 ft 448 kts 25°
2026-04-23 00:36 20.19729 -80.17262 31779 ft 448 kts 25°
2026-04-23 00:36 20.22489 -80.15700 32106 ft 448 kts 25°
2026-04-23 00:37 20.25241 -80.14143 32431 ft 448 kts 25°
2026-04-23 00:37 20.27966 -80.12602 32754 ft 447 kts 25°
2026-04-23 00:37 20.30709 -80.11051 33079 ft 447 kts 25°
2026-04-23 00:37 20.33518 -80.09654 33370 ft 444 kts 17°
2026-04-23 00:38 20.36479 -80.08760 33579 ft 437 kts
2026-04-23 00:38 20.39483 -80.08326 33756 ft 435 kts
2026-04-23 00:38 20.41486 -80.08152 33867 ft 436 kts
2026-04-23 00:38 20.45523 -80.07983 34059 ft 432 kts 358°
2026-04-23 00:39 20.47517 -80.07986 34142 ft 432 kts 356°
2026-04-23 00:39 20.50521 -80.08041 34252 ft 431 kts 356°
2026-04-23 00:39 20.53526 -80.08096 34350 ft 434 kts 357°
2026-04-23 00:40 20.59579 -80.08027 34738 ft 433 kts 358°
2026-04-23 00:40 20.62585 -80.07988 35064 ft 431 kts 358°
2026-04-23 00:40 20.65576 -80.07956 35383 ft 429 kts 358°
2026-04-23 00:40 20.68561 -80.07927 35538 ft 430 kts 358°
2026-04-23 00:41 20.71558 -80.07901 35579 ft 430 kts 358°
2026-04-23 00:41 20.77532 -80.07852 35593 ft 429 kts 358°
2026-04-23 00:42 20.83478 -80.07059 35595 ft 434 kts
2026-04-23 00:42 20.89345 -80.05592 35594 ft 437 kts 10°
2026-04-23 00:43 20.95253 -80.04061 35594 ft 435 kts 11°
2026-04-23 00:43 21.01143 -80.02532 35595 ft 436 kts 11°
2026-04-23 00:44 21.07065 -80.00995 35593 ft 437 kts 10°
2026-04-23 00:44 21.12991 -79.99455 35593 ft 438 kts 10°
2026-04-23 00:45 21.18929 -79.97912 35594 ft 439 kts 10°
2026-04-23 00:45 21.24733 -79.95876 35594 ft 442 kts 26°
2026-04-23 00:46 21.29894 -79.92258 35594 ft 444 kts 31°
2026-04-23 00:46 21.35016 -79.88487 35593 ft 447 kts 31°
2026-04-23 00:47 21.40137 -79.84751 35594 ft 444 kts 31°
2026-04-23 00:47 21.45188 -79.81068 35594 ft 440 kts 31°
2026-04-23 00:48 21.50259 -79.77368 35594 ft 442 kts 31°
2026-04-23 00:48 21.55355 -79.73648 35593 ft 442 kts 31°
2026-04-23 00:49 21.60446 -79.69927 35594 ft 442 kts 31°
2026-04-23 00:49 21.65524 -79.66212 35593 ft 443 kts 31°
2026-04-23 00:50 21.70613 -79.62485 35594 ft 442 kts 31°
2026-04-23 00:50 21.75713 -79.58749 35595 ft 444 kts 31°
2026-04-23 00:51 21.80851 -79.54983 35594 ft 447 kts 31°
2026-04-23 00:51 21.85996 -79.51206 35594 ft 447 kts 31°
2026-04-23 00:52 21.91108 -79.47447 35594 ft 444 kts 31°
2026-04-23 00:52 21.96179 -79.43718 35594 ft 443 kts 31°
2026-04-23 00:53 22.01278 -79.39965 35594 ft 444 kts 31°
2026-04-23 00:53 22.06379 -79.36207 35594 ft 444 kts 31°
2026-04-23 00:54 22.11454 -79.32466 35594 ft 440 kts 31°
2026-04-23 00:54 22.16511 -79.28743 35594 ft 440 kts 32°
2026-04-23 00:55 22.21580 -79.24995 35594 ft 442 kts 33°
2026-04-23 00:55 22.26617 -79.21266 35594 ft 442 kts 33°
2026-04-23 00:56 22.31697 -79.17504 35594 ft 443 kts 33°
2026-04-23 00:56 22.36782 -79.13741 35594 ft 443 kts 33°
2026-04-23 00:57 22.41875 -79.09964 35593 ft 443 kts 33°
2026-04-23 00:57 22.46954 -79.06189 35594 ft 443 kts 32°
2026-04-23 00:58 22.52031 -79.02409 35593 ft 443 kts 32°
2026-04-23 00:58 22.57108 -78.98640 35595 ft 442 kts 31°
2026-04-23 00:59 22.62168 -78.94889 35594 ft 443 kts 31°
2026-04-23 00:59 22.67236 -78.91110 35594 ft 441 kts 31°
2026-04-23 01:00 22.72285 -78.87342 35594 ft 442 kts 31°
2026-04-23 01:00 22.77388 -78.83540 35594 ft 446 kts 31°
2026-04-23 01:01 22.82484 -78.79734 35594 ft 443 kts 31°
2026-04-23 01:01 22.87557 -78.75941 35594 ft 442 kts 31°
2026-04-23 01:02 22.92619 -78.72154 35594 ft 441 kts 31°
2026-04-23 01:02 22.97683 -78.68362 35594 ft 443 kts 31°
2026-04-23 01:03 23.02748 -78.64565 35594 ft 441 kts 31°
2026-04-23 01:03 23.07792 -78.60781 35594 ft 440 kts 31°
2026-04-23 01:04 23.12136 -78.57518 35594 ft 441 kts 31°
2026-04-23 01:04 23.19695 -78.51837 35594 ft 443 kts 31°
2026-04-23 01:05 23.24761 -78.48025 35594 ft 443 kts 31°
2026-04-23 01:05 23.29878 -78.44172 35593 ft 447 kts 31°
2026-04-23 01:06 23.34977 -78.40326 35594 ft 445 kts 31°
2026-04-23 01:06 23.40025 -78.36515 35595 ft 444 kts 31°
2026-04-23 01:07 23.45110 -78.32674 35594 ft 443 kts 31°